User: anonymous
Location: Pine Mountain Observatory
(43.7910°N, 120.9377°W)
Time: 14:59:40
(UTC-07:00)
Language:

APEX - Orbit

View from above orbital plane
View from above orbital plane
View from above satellite
View from above satellite

Ground track
Ground track

The orbit data is extracted from the following two-line orbital elements,

1 23191U 94046A   14260.79103306  .00034812  00000-0  13899-2 0  9968
2 23191 069.9221 340.9262 0734665 176.0412 328.1072 14.06243799973530
Epoch (UTC): 17 September 2014 18:59:05
Eccentricity: 0.0734665
inclination: 69.9221°
perigee height: 339 km
apogee height: 1405 km
right ascension of ascending node: 340.9262°
argument of perigee: 176.0412°
revolutions per day: 14.06243799
mean anomaly at epoch: 328.1072°
orbit number at epoch: 97353

The dashed part of the orbit path shows where the satellite is in the earth's shadow,  

DLR